Погода в Бараках

Россия / Владимирская область     56°02′45″N   40°32′03″E
темп.,
°C
ветер,
м/с
пор.,
м/с
влажн.,
%
обл.,
%
осадки,
мм/ч
давл.,
гПа
погр.,
м
5 августа, чт
чт500:00+14ссз12706 0.0 101711
03:00+12зсз0070100 0.0 101810
06:00+14ю11696 0.0 101818
09:00+21ю12465 0.0 1018666
12:00+24ю1241100 0.0 10171831
15:00+24ююз1241100 0.0 10161775
18:00+22вюв2357100 0.0 101563
21:00+15зсз4789100 0.4 1016219
6 августа, пт
пт600:00+15всв2896100 1.6 1016231
03:00+14в3109592 1.8 1014235
06:00+14вюв2790100 0.1 1014204
09:00+18ю2678100 0.2 1014286
12:00+18в2587100 0.8 1014229
15:00+19вюв2484100 0.9 1013124
18:00+17вюв2599100 7.0 1013210
21:00+16в31096100 7.3 1013289
7 августа, сб
сб700:00+16в4119451 0.2 1012321
03:00+15в389763 0.8 1011247
06:00+16вюв389665 1.3 1011222
09:00+20ююв378495 3.4 1011425
12:00+24ююв366833 2.1 1011737
15:00+30ююз463348 2.1 10102108
18:00+26юв1159100 0.0 101112
21:00+22с117099 0.0 101211
8 августа, вс
вс800:00+21юв3970100 0.0 1012191
03:00+21ююв4145799 0.0 1012380
06:00+19ююз31062100 0.0 1013328
09:00+21зюз3764100 0.0 1014327
12:00+23зюз2363100 0.0 1015526
15:00+25зсз1157100 0.1 1015816
18:00+24з126897 0.1 1015269
21:00+18зюз22945 0.8 101629
9 августа, пн
пн900:00+17юз11944 1.5 101611
03:00+16зюз12930 1.5 101713
06:00+16зюз11909 0.0 101729
09:00+21з237085 0.0 1017354
12:00+26зюз34465 0.0 10171551
15:00+28з34415 0.0 10172109
18:00+26з245277 0.0 1016154
21:00+20зюз22675 0.0 101713